,,Stat6,,Stat2,,Stat8,,Stat9,,Stat10,,Wind1,,Wind1,
time,status,PA1M_AVG,status,PR1M_SUM,status,RH1M_AVG,status,SR1M_AVG,status,TA1M_AVG,status,W1dAve1m,status,W1sAve1m,
2007-12-06, 00:00:00,VALID,917.809,VALID,0,VALID,95.8205,VALID,-0.0849042,VALID,20.4467,VALID,111,VALID,0.829427,
2007-12-06, 00:01:00,VALID,917.8,VALID,0,VALID,95.5674,VALID,-0.0169808,VALID,20.4459,VALID,140,VALID,1.1012,
2007-12-06, 00:02:00,VALID,917.786,VALID,0,VALID,95.5624,VALID,-0.0169808,VALID,20.4427,VALID,149,VALID,1.47191,
2007-12-06, 00:03:00,VALID,917.779,VALID,0,VALID,95.5217,VALID,-0.0679233,VALID,20.4427,VALID,141,VALID,1.30196,
2007-12-06, 00:04:00,VALID,917.769,VALID,0.2,VALID,95.7455,VALID,-0.0679233,VALID,20.4494,VALID,149,VALID,0.711509,
2007-12-06, 00:05:00,VALID,917.768,VALID,0,VALID,96.0214,VALID,-0.0509425,VALID,20.4199,VALID,123,VALID,0.616044,
2007-12-06, 00:06:00,VALID,917.746,VALID,0,VALID,96.0316,VALID,-0.0679233,VALID,20.3942,VALID,136,VALID,0.890253,
2007-12-06, 00:07:00,VALID,917.73,VALID,0,VALID,96.0748,VALID,-0.0509425,VALID,20.358,VALID,153,VALID,0.864524,
2007-12-06, 00:08:00,VALID,917.723,VALID,0,VALID,96.3953,VALID,-0.0679233,VALID,20.388,VALID,165,VALID,0.429893,
2007-12-06, 00:09:00,VALID,917.722,VALID,0,VALID,96.4283,VALID,-0.0679233,VALID,20.3872,VALID,160,VALID,0.664912,
2007-12-06, 00:10:00,VALID,917.732,VALID,0,VALID,96.4703,VALID,-0.0849042,VALID,20.3775,VALID,170,VALID,0.764757,
2007-12-06, 00:11:00,VALID,917.734,VALID,0,VALID,96.483,VALID,-0.0169808,VALID,20.3548,VALID,160,VALID,0.593056,
2007-12-06, 00:12:00,VALID,917.734,VALID,0,VALID,96.6267,VALID,-0.0849042,VALID,20.3453,VALID,167,VALID,0.528011,
2007-12-06, 00:13:00,VALID,917.733,VALID,0,VALID,96.7068,VALID,-0.0679233,VALID,20.3388,VALID,173,VALID,0.382626,
2007-12-06, 00:14:00,VALID,917.715,VALID,0,VALID,96.7793,VALID,0,VALID,20.3291,VALID,168,VALID,0.347202,
2007-12-06, 00:15:01,VALID,917.728,VALID,0,VALID,96.9535,VALID,-0.0339617,VALID,20.3158,VALID,165,VALID,0.0643169,
2007-12-06, 00:16:01,VALID,917.716,VALID,0,VALID,97.19,VALID,-0.0339617,VALID,20.3188,VALID,165,VALID,0,
2007-12-06, 00:17:00,VALID,917.724,VALID,0,VALID,97.045,VALID,-0.0679233,VALID,20.3126,VALID,165,VALID,0.0188953,
2007-12-06, 00:18:01,VALID,917.709,VALID,0,VALID,97.2612,VALID,0,VALID,20.2829,VALID,165,VALID,0,
2007-12-06, 00:19:00,VALID,917.703,VALID,0,VALID,97.3019,VALID,-0.0339617,VALID,20.2799,VALID,165,VALID,0,
2007-12-06, 00:20:00,VALID,917.68,VALID,0,VALID,97.3718,VALID,-0.0509425,VALID,20.2771,VALID,165,VALID,0,
2007-12-06, 00:21:00,VALID,917.681,VALID,0,VALID,97.3172,VALID,-0.0509425,VALID,20.2707,VALID,165,VALID,0,
2007-12-06, 00:22:01,VALID,917.667,VALID,0,VALID,97.6745,VALID,-0.0509425,VALID,20.2769,VALID,165,VALID,0,
2007-12-06, 00:23:01,VALID,917.665,VALID,0,VALID,97.7025,VALID,-0.0339617,VALID,20.3223,VALID,165,VALID,0,
2007-12-06, 00:24:01,VALID,917.631,VALID,0,VALID,97.4685,VALID,0,VALID,20.3223,VALID,165,VALID,0.0370593,
2007-12-06, 00:25:00,VALID,917.6,VALID,0,VALID,97.6147,VALID,-0.0339617,VALID,20.335,VALID,165,VALID,0.0221657,
2007-12-06, 00:26:00,VALID,917.577,VALID,0,VALID,97.7724,VALID,0,VALID,20.3578,VALID,165,VALID,0,
2007-12-06, 00:27:00,VALID,917.559,VALID,0,VALID,97.6847,VALID,0,VALID,20.351,VALID,165,VALID,0,
2007-12-06, 00:28:00,VALID,917.528,VALID,0,VALID,97.6694,VALID,-0.0509425,VALID,20.341,VALID,165,VALID,0.381722,
2007-12-06, 00:29:00,VALID,917.514,VALID,0,VALID,97.5537,VALID,-0.0509425,VALID,20.3188,VALID,174,VALID,0.653706,
2007-12-06, 00:30:00,VALID,917.491,VALID,0,VALID,97.5397,VALID,0,VALID,20.2964,VALID,174,VALID,0.744284,
2007-12-06, 00:31:00,VALID,917.453,VALID,0,VALID,97.5906,VALID,-0.0169808,VALID,20.2566,VALID,184,VALID,0.68129,
2007-12-06, 00:32:00,VALID,917.435,VALID,0,VALID,97.6173,VALID,0,VALID,20.2502,VALID,177,VALID,0.531783,
2007-12-06, 00:33:00,VALID,917.398,VALID,0,VALID,97.7457,VALID,0,VALID,20.2537,VALID,187,VALID,0.822011,
2007-12-06, 00:34:00,VALID,917.374,VALID,0,VALID,97.7622,VALID,-0.0169808,VALID,20.2474,VALID,190,VALID,1.18806,
2007-12-06, 00:35:00,VALID,917.353,VALID,0,VALID,97.7381,VALID,0,VALID,20.2112,VALID,180,VALID,0.792874,
2007-12-06, 00:36:01,VALID,917.334,VALID,0,VALID,97.808,VALID,-0.0169808,VALID,20.2247,VALID,190,VALID,0.645486,
2007-12-06, 00:37:00,VALID,917.319,VALID,0,VALID,97.7012,VALID,0,VALID,20.218,VALID,185,VALID,0.661156,
2007-12-06, 00:38:01,VALID,917.312,VALID,0,VALID,97.6834,VALID,-0.0169808,VALID,20.2217,VALID,183,VALID,0.492365,
2007-12-06, 00:39:01,VALID,917.298,VALID,0,VALID,97.6745,VALID,-0.0169808,VALID,20.2215,VALID,187,VALID,0.541159,
2007-12-06, 00:40:01,VALID,917.294,VALID,0,VALID,97.7254,VALID,-0.0169808,VALID,20.2347,VALID,192,VALID,0.0930556,
2007-12-06, 00:41:00,VALID,917.311,VALID,0,VALID,97.7165,VALID,0,VALID,20.2542,VALID,163,VALID,0.216704,
2007-12-06, 00:42:00,VALID,917.317,VALID,0,VALID,97.7749,VALID,-0.0169808,VALID,20.2509,VALID,161,VALID,0.00920139,
2007-12-06, 00:43:01,VALID,917.327,VALID,0,VALID,97.864,VALID,-0.0169808,VALID,20.2602,VALID,161,VALID,0.015625,
2007-12-06, 00:44:00,VALID,917.327,VALID,0,VALID,97.9212,VALID,-0.0339617,VALID,20.2864,VALID,161,VALID,0.0365767,
2007-12-06, 00:45:01,VALID,917.327,VALID,0,VALID,97.6732,VALID,-0.0339617,VALID,20.2799,VALID,171,VALID,0.299538,
2007-12-06, 00:46:00,VALID,917.321,VALID,0,VALID,97.5677,VALID,0,VALID,20.2801,VALID,175,VALID,0.565476,
2007-12-06, 00:47:01,VALID,917.321,VALID,0,VALID,97.5003,VALID,-0.0509425,VALID,20.2599,VALID,187,VALID,0.09375,
2007-12-06, 00:48:00,VALID,917.312,VALID,0,VALID,97.5918,VALID,0.0169808,VALID,20.2761,VALID,188,VALID,0,
2007-12-06, 00:49:00,VALID,917.31,VALID,0,VALID,97.5918,VALID,-0.0169808,VALID,20.3121,VALID,188,VALID,0.118096,
2007-12-06, 00:50:00,VALID,917.309,VALID,0,VALID,97.6948,VALID,-0.0509425,VALID,20.3058,VALID,188,VALID,0,
2007-12-06, 00:51:01,VALID,917.302,VALID,0,VALID,97.7228,VALID,-0.0509425,VALID,20.3321,VALID,188,VALID,0,
2007-12-06, 00:52:00,VALID,917.302,VALID,0,VALID,97.6541,VALID,-0.0339617,VALID,20.3253,VALID,188,VALID,0,
2007-12-06, 00:53:00,VALID,917.292,VALID,0,VALID,97.7838,VALID,0,VALID,20.328,VALID,188,VALID,0,
2007-12-06, 00:54:00,VALID,917.293,VALID,0,VALID,97.733,VALID,-0.0509425,VALID,20.3353,VALID,188,VALID,0,
2007-12-06, 00:55:00,VALID,917.283,VALID,0,VALID,97.8919,VALID,-0.0339617,VALID,20.3321,VALID,188,VALID,0,
2007-12-06, 00:56:00,VALID,917.268,VALID,0,VALID,97.911,VALID,-0.0169808,VALID,20.3093,VALID,188,VALID,0,
2007-12-06, 00:57:00,VALID,917.263,VALID,0,VALID,98.089,VALID,-0.0169808,VALID,20.2866,VALID,188,VALID,0,
2007-12-06, 00:58:00,VALID,917.242,VALID,0,VALID,98.4286,VALID,-0.0339617,VALID,20.2866,VALID,188,VALID,0,
2007-12-06, 00:59:01,VALID,917.233,VALID,0,VALID,98.5684,VALID,-0.0169808,VALID,20.2934,VALID,188,VALID,0.00290698,
2007-12-06, 01:00:00,VALID,917.216,VALID,0,VALID,98.7375,VALID,-0.0339617,VALID,20.2964,VALID,188,VALID,0.0701389,
2007-12-06, 01:01:01,VALID,917.193,VALID,0,VALID,98.6752,VALID,-0.0169808,VALID,20.2993,VALID,182,VALID,0.285156,
2007-12-06, 01:02:01,VALID,917.176,VALID,0,VALID,98.4934,VALID,-0.0679233,VALID,20.2607,VALID,172,VALID,0.613194,
2007-12-06, 01:03:01,VALID,917.154,VALID,0,VALID,98.4413,VALID,-0.0339617,VALID,20.222,VALID,167,VALID,0.812872,
2007-12-06, 01:04:01,VALID,917.138,VALID,0,VALID,98.5036,VALID,-0.0679233,VALID,20.1928,VALID,162,VALID,0.736737,
2007-12-06, 01:05:01,VALID,917.115,VALID,0,VALID,98.6892,VALID,-0.0679233,VALID,20.199,VALID,164,VALID,0.492001,
2007-12-06, 01:06:01,VALID,917.089,VALID,0,VALID,98.5099,VALID,-0.0509425,VALID,20.186,VALID,145,VALID,0.822743,
2007-12-06, 01:07:01,VALID,917.063,VALID,0,VALID,98.4616,VALID,-0.0679233,VALID,20.1698,VALID,153,VALID,0.881138,
2007-12-06, 01:08:01,VALID,917.028,VALID,0,VALID,98.3942,VALID,-0.0679233,VALID,20.1438,VALID,162,VALID,1.41479,
2007-12-06, 01:09:01,VALID,917.001,VALID,0,VALID,98.4196,VALID,-0.0509425,VALID,20.1444,VALID,171,VALID,1.35747,
2007-12-06, 01:10:01,VALID,916.982,VALID,0,VALID,98.379,VALID,-0.0339617,VALID,20.1374,VALID,173,VALID,1.29488,
2007-12-06, 01:11:01,VALID,916.973,VALID,0,VALID,98.3484,VALID,-0.0849042,VALID,20.1344,VALID,171,VALID,1.61172,
2007-12-06, 01:12:00,VALID,916.96,VALID,0,VALID,98.4108,VALID,-0.0169808,VALID,20.1276,VALID,174,VALID,1.12101,
2007-12-06, 01:13:00,VALID,916.952,VALID,0,VALID,98.3459,VALID,-0.0509425,VALID,20.1309,VALID,161,VALID,1.45486,
2007-12-06, 01:14:00,VALID,916.936,VALID,0,VALID,98.4006,VALID,-0.0339617,VALID,20.1141,VALID,170,VALID,1.00888,
2007-12-06, 01:15:00,VALID,916.911,VALID,0,VALID,98.3904,VALID,-0.0169808,VALID,20.1179,VALID,155,VALID,1.1131,
2007-12-06, 01:16:00,VALID,916.881,VALID,0,VALID,98.44,VALID,-0.0169808,VALID,20.1052,VALID,155,VALID,0.901172,
2007-12-06, 01:17:00,VALID,916.859,VALID,0,VALID,98.5786,VALID,-0.0509425,VALID,20.0822,VALID,163,VALID,1.07758,
2007-12-06, 01:18:00,VALID,916.84,VALID,0,VALID,98.688,VALID,-0.0509425,VALID,20.0757,VALID,157,VALID,1.0971,
2007-12-06, 01:19:00,VALID,916.825,VALID,0,VALID,98.7197,VALID,0,VALID,20.0627,VALID,168,VALID,1.11849,
2007-12-06, 01:20:00,VALID,916.802,VALID,0,VALID,98.7121,VALID,-0.0339617,VALID,20.0465,VALID,169,VALID,0.957031,
2007-12-06, 01:21:00,VALID,916.784,VALID,0,VALID,98.7859,VALID,-0.0169808,VALID,20.0495,VALID,183,VALID,0.611374,
2007-12-06, 01:22:00,VALID,916.768,VALID,0,VALID,98.6269,VALID,-0.0339617,VALID,20.0495,VALID,178,VALID,1.02679,
2007-12-06, 01:23:00,VALID,916.771,VALID,0,VALID,98.5735,VALID,-0.0169808,VALID,20.0597,VALID,197,VALID,0.642442,
2007-12-06, 01:24:00,VALID,916.756,VALID,0,VALID,98.5862,VALID,0,VALID,20.0557,VALID,166,VALID,0.620164,
2007-12-06, 01:25:00,VALID,916.742,VALID,0,VALID,98.4743,VALID,-0.0509425,VALID,20.0692,VALID,169,VALID,0.226736,
2007-12-06, 01:26:00,VALID,916.745,VALID,0,VALID,98.5227,VALID,-0.0509425,VALID,20.069,VALID,169,VALID,0,
2007-12-06, 01:27:00,VALID,916.724,VALID,0,VALID,98.5392,VALID,-0.0169808,VALID,20.0752,VALID,168,VALID,0.00981105,
2007-12-06, 01:28:00,VALID,916.717,VALID,0,VALID,98.529,VALID,-0.0169808,VALID,20.0819,VALID,156,VALID,0.168786,
2007-12-06, 01:29:00,VALID,916.7,VALID,0,VALID,98.4438,VALID,-0.0339617,VALID,20.0822,VALID,142,VALID,0.24314,
2007-12-06, 01:30:00,VALID,916.689,VALID,0,VALID,98.3319,VALID,-0.0339617,VALID,20.0792,VALID,101,VALID,0.645647,
2007-12-06, 01:31:00,VALID,916.67,VALID,0,VALID,98.3904,VALID,-0.0679233,VALID,20.063,VALID,93,VALID,0.307617,
2007-12-06, 01:32:00,VALID,916.663,VALID,0,VALID,98.5506,VALID,-0.0339617,VALID,20.0627,VALID,81,VALID,0.433408,
2007-12-06, 01:33:00,VALID,916.648,VALID,0,VALID,98.5811,VALID,-0.0339617,VALID,20.0462,VALID,72,VALID,0.370561,
2007-12-06, 01:34:00,VALID,916.647,VALID,0,VALID,98.5761,VALID,-0.0169808,VALID,20.0268,VALID,72,VALID,0.409986,
2007-12-06, 01:35:00,VALID,916.638,VALID,0,VALID,98.5748,VALID,-0.0169808,VALID,19.9878,VALID,72,VALID,0.400781,
2007-12-06, 01:36:00,VALID,916.621,VALID,0,VALID,98.6511,VALID,0,VALID,19.9651,VALID,76,VALID,0.39596,
2007-12-06, 01:37:00,VALID,916.613,VALID,0,VALID,98.7083,VALID,0,VALID,19.9521,VALID,90,VALID,0.537729,
2007-12-06, 01:38:00,VALID,916.6,VALID,0,VALID,98.7223,VALID,-0.0509425,VALID,19.9451,VALID,90,VALID,0.446584,
2007-12-06, 01:39:00,VALID,916.579,VALID,0,VALID,98.7579,VALID,0,VALID,19.9581,VALID,90,VALID,0.278923,
2007-12-06, 01:40:00,VALID,916.56,VALID,0,VALID,98.8431,VALID,0,VALID,19.9719,VALID,90,VALID,0.192769,
2007-12-06, 01:41:00,VALID,916.546,VALID,0,VALID,98.8736,VALID,0.0169808,VALID,19.9843,VALID,90,VALID,0.367543,
2007-12-06, 01:42:00,VALID,916.532,VALID,0,VALID,98.7643,VALID,-0.0509425,VALID,19.9649,VALID,92,VALID,0.522104,
2007-12-06, 01:43:00,VALID,916.518,VALID,0,VALID,98.8571,VALID,-0.0169808,VALID,19.9576,VALID,96,VALID,0.513421,
2007-12-06, 01:44:00,VALID,916.501,VALID,0,VALID,98.9486,VALID,0,VALID,19.9616,VALID,96,VALID,0.511242,
2007-12-06, 01:45:00,VALID,916.485,VALID,0,VALID,99.0275,VALID,-0.0169808,VALID,19.9544,VALID,96,VALID,0.0401786,
2007-12-06, 01:46:00,VALID,916.456,VALID,0,VALID,98.9982,VALID,0,VALID,19.9746,VALID,96,VALID,0,
2007-12-06, 01:47:00,VALID,916.448,VALID,0,VALID,99.1483,VALID,-0.0169808,VALID,19.9848,VALID,96,VALID,0,
2007-12-06, 01:48:00,VALID,916.435,VALID,0,VALID,99.2704,VALID,-0.0679233,VALID,20.0105,VALID,96,VALID,0,
2007-12-06, 01:49:00,VALID,916.423,VALID,0,VALID,99.3085,VALID,-0.0169808,VALID,20.0298,VALID,96,VALID,0,
2007-12-06, 01:50:00,VALID,916.405,VALID,0,VALID,99.2627,VALID,0,VALID,20.036,VALID,96,VALID,0,
2007-12-06, 01:51:00,VALID,916.385,VALID,0,VALID,99.1572,VALID,-0.0169808,VALID,20.0233,VALID,97,VALID,0,
2007-12-06, 01:52:00,VALID,916.368,VALID,0,VALID,99.0809,VALID,-0.0339617,VALID,20.0268,VALID,97,VALID,0.0426829,
2007-12-06, 01:53:00,VALID,916.352,VALID,0,VALID,99.0427,VALID,-0.0169808,VALID,20.0128,VALID,97,VALID,0,
2007-12-06, 01:54:00,VALID,916.346,VALID,0,VALID,99.0453,VALID,0,VALID,20.0195,VALID,97,VALID,0,
2007-12-06, 01:55:00,VALID,916.336,VALID,0,VALID,99.1228,VALID,0.0169808,VALID,20.0425,VALID,97,VALID,0,
2007-12-06, 01:56:00,VALID,916.322,VALID,0,VALID,99.0338,VALID,0.0169808,VALID,20.0387,VALID,97,VALID,0,
2007-12-06, 01:57:00,VALID,916.307,VALID,0,VALID,98.8406,VALID,0,VALID,20.0333,VALID,97,VALID,0,
2007-12-06, 01:58:00,VALID,916.322,VALID,0,VALID,98.7795,VALID,0,VALID,19.9801,VALID,97,VALID,0,
2007-12-06, 01:59:00,VALID,916.31,VALID,0,VALID,98.8723,VALID,-0.0339617,VALID,19.9489,VALID,97,VALID,0,
2007-12-06, 02:00:00,VALID,916.288,VALID,0,VALID,98.983,VALID,0,VALID,19.897,VALID,97,VALID,0,
2007-12-06, 02:01:00,VALID,916.262,VALID,0,VALID,99.0923,VALID,-0.0169808,VALID,19.8907,VALID,97,VALID,0,
2007-12-06, 02:02:00,VALID,916.248,VALID,0,VALID,99.2093,VALID,-0.0339617,VALID,19.8708,VALID,97,VALID,0,
2007-12-06, 02:03:00,VALID,916.234,VALID,0,VALID,99.3772,VALID,-0.0509425,VALID,19.8518,VALID,77,VALID,0,
2007-12-06, 02:04:00,VALID,916.213,VALID,0,VALID,99.4967,VALID,-0.0169808,VALID,19.8326,VALID,74,VALID,0,
2007-12-06, 02:05:00,VALID,916.193,VALID,0,VALID,99.634,VALID,-0.0339617,VALID,19.7961,VALID,73,VALID,0,
2007-12-06, 02:06:00,VALID,916.184,VALID,0,VALID,99.7688,VALID,-0.0339617,VALID,19.7797,VALID,73,VALID,0,
2007-12-06, 02:07:00,VALID,916.167,VALID,0,VALID,99.8222,VALID,-0.0339617,VALID,19.7577,VALID,73,VALID,0,
2007-12-06, 02:08:00,VALID,916.147,VALID,0,VALID,99.9379,VALID,-0.0339617,VALID,19.7475,VALID,73,VALID,0,
2007-12-06, 02:09:00,VALID,916.117,VALID,0,VALID,99.9807,VALID,0,VALID,19.7148,VALID,73,VALID,0,
2007-12-06, 02:10:00,VALID,916.085,VALID,0,VALID,100,VALID,-0.0169808,VALID,19.725,VALID,73,VALID,0,
2007-12-06, 02:11:00,VALID,916.075,VALID,0,VALID,100,VALID,-0.0339617,VALID,19.7315,VALID,73,VALID,0,
2007-12-06, 02:12:00,VALID,916.047,VALID,0,VALID,100,VALID,-0.0169808,VALID,19.7507,VALID,73,VALID,0,
2007-12-06, 02:13:00,VALID,916.027,VALID,0,VALID,100,VALID,0,VALID,19.7565,VALID,81,VALID,0,
2007-12-06, 02:14:00,VALID,916.003,VALID,0,VALID,100,VALID,-0.0339617,VALID,19.7964,VALID,94,VALID,0,
2007-12-06, 02:15:00,VALID,915.994,VALID,0,VALID,100,VALID,-0.0339617,VALID,19.8031,VALID,111,VALID,0,
2007-12-06, 02:16:00,VALID,915.976,VALID,0,VALID,100,VALID,-0.0169808,VALID,19.7966,VALID,119,VALID,0,
2007-12-06, 02:17:00,VALID,915.953,VALID,0,VALID,100,VALID,0,VALID,19.7767,VALID,132,VALID,0,
2007-12-06, 02:18:00,VALID,915.931,VALID,0,VALID,100,VALID,-0.0169808,VALID,19.751,VALID,132,VALID,0,
2007-12-06, 02:19:00,VALID,915.912,VALID,0,VALID,100,VALID,-0.0169808,VALID,19.7148,VALID,132,VALID,0,
2007-12-06, 02:20:00,VALID,915.897,VALID,0,VALID,100,VALID,-0.0339617,VALID,19.6861,VALID,118,VALID,0,
2007-12-06, 02:21:00,VALID,915.894,VALID,0,VALID,100,VALID,0,VALID,19.6531,VALID,112,VALID,0,
2007-12-06, 02:22:00,VALID,915.889,VALID,0,VALID,100,VALID,-0.0169808,VALID,19.6504,VALID,112,VALID,0,
2007-12-06, 02:23:00,VALID,915.879,VALID,0,VALID,100,VALID,-0.0169808,VALID,19.6599,VALID,112,VALID,0,
2007-12-06, 02:24:00,VALID,915.871,VALID,0,VALID,100,VALID,0,VALID,19.6858,VALID,117,VALID,0,
2007-12-06, 02:25:00,VALID,915.859,VALID,0,VALID,100,VALID,-0.0169808,VALID,19.6953,VALID,118,VALID,0,
2007-12-06, 02:26:00,VALID,915.835,VALID,0,VALID,100,VALID,0,VALID,19.6886,VALID,119,VALID,0,
2007-12-06, 02:27:00,VALID,915.817,VALID,0,VALID,100,VALID,0,VALID,19.7055,VALID,119,VALID,0,
2007-12-06, 02:28:00,VALID,915.813,VALID,0,VALID,100,VALID,0,VALID,19.6881,VALID,119,VALID,0,
2007-12-06, 02:29:00,VALID,915.787,VALID,0,VALID,100,VALID,0.0509425,VALID,19.7055,VALID,120,VALID,0,
2007-12-06, 02:30:00,VALID,915.774,VALID,0,VALID,100,VALID,0,VALID,19.6916,VALID,120,VALID,0,
2007-12-06, 02:31:00,VALID,915.765,VALID,0,VALID,100,VALID,0,VALID,19.6918,VALID,120,VALID,0,
2007-12-06, 02:32:00,VALID,915.739,VALID,0,VALID,100,VALID,-0.0509425,VALID,19.6826,VALID,120,VALID,0,
2007-12-06, 02:33:00,VALID,915.733,VALID,0,VALID,100,VALID,0,VALID,19.6724,VALID,120,VALID,0,
2007-12-06, 02:34:00,VALID,915.732,VALID,0,VALID,100,VALID,0.0169808,VALID,19.6721,VALID,135,VALID,0,
2007-12-06, 02:35:00,VALID,915.738,VALID,0,VALID,100,VALID,0,VALID,19.6689,VALID,138,VALID,0,
2007-12-06, 02:36:00,VALID,915.74,VALID,0,VALID,100,VALID,0,VALID,19.6726,VALID,144,VALID,0,
2007-12-06, 02:37:00,VALID,915.745,VALID,0,VALID,100,VALID,-0.0169808,VALID,19.6466,VALID,157,VALID,0.696243,
2007-12-06, 02:38:00,VALID,915.747,VALID,0,VALID,100,VALID,0,VALID,19.6274,VALID,158,VALID,0.915206,
2007-12-06, 02:39:00,VALID,915.746,VALID,0,VALID,100,VALID,0,VALID,19.6212,VALID,156,VALID,0.996189,
2007-12-06, 02:40:00,VALID,915.75,VALID,0,VALID,100,VALID,-0.0169808,VALID,19.6112,VALID,151,VALID,0.698828,
2007-12-06, 02:41:00,VALID,915.747,VALID,0,VALID,100,VALID,0,VALID,19.6209,VALID,151,VALID,0.998224,
2007-12-06, 02:42:00,VALID,915.754,VALID,0,VALID,100,VALID,-0.0849042,VALID,19.6189,VALID,151,VALID,0.442294,
2007-12-06, 02:43:00,VALID,915.748,VALID,0,VALID,100,VALID,-0.101885,VALID,19.6092,VALID,135,VALID,0.441311,
2007-12-06, 02:44:00,VALID,915.731,VALID,0,VALID,100,VALID,-0.135847,VALID,19.6097,VALID,137,VALID,0.695313,
2007-12-06, 02:45:00,VALID,915.72,VALID,0,VALID,100,VALID,-0.118866,VALID,19.6129,VALID,134,VALID,0.693945,
2007-12-06, 02:46:00,VALID,915.714,VALID,0,VALID,100,VALID,-0.118866,VALID,19.6032,VALID,133,VALID,0.579055,
2007-12-06, 02:47:00,VALID,915.708,VALID,0,VALID,100,VALID,-0.135847,VALID,19.603,VALID,136,VALID,0.600818,
2007-12-06, 02:48:00,VALID,915.694,VALID,0,VALID,100,VALID,-0.101885,VALID,19.5965,VALID,140,VALID,0.609193,
2007-12-06, 02:49:00,VALID,915.693,VALID,0,VALID,100,VALID,-0.135847,VALID,19.5932,VALID,145,VALID,0.580915,
2007-12-06, 02:50:00,VALID,915.674,VALID,0,VALID,100,VALID,-0.101885,VALID,19.6,VALID,141,VALID,0.752734,
2007-12-06, 02:51:00,VALID,915.672,VALID,0,VALID,100,VALID,-0.101885,VALID,19.586,VALID,140,VALID,0.815589,
2007-12-06, 02:52:00,VALID,915.66,VALID,0,VALID,100,VALID,-0.0849042,VALID,19.5825,VALID,131,VALID,0.726004,
2007-12-06, 02:53:00,VALID,915.66,VALID,0,VALID,100,VALID,-0.135847,VALID,19.5897,VALID,122,VALID,0.75218,
2007-12-06, 02:54:00,VALID,915.643,VALID,0,VALID,100,VALID,-0.118866,VALID,19.5937,VALID,129,VALID,1.00119,
2007-12-06, 02:55:00,VALID,915.63,VALID,0,VALID,100,VALID,-0.101885,VALID,19.5832,VALID,132,VALID,1.22479,
2007-12-06, 02:56:00,VALID,915.615,VALID,0,VALID,100,VALID,-0.118866,VALID,19.5937,VALID,136,VALID,0.96059,
2007-12-06, 02:57:00,VALID,915.589,VALID,0,VALID,100,VALID,-0.0849042,VALID,19.5967,VALID,135,VALID,1.25509,
2007-12-06, 02:58:00,VALID,915.562,VALID,0,VALID,100,VALID,-0.101885,VALID,19.606,VALID,141,VALID,1.33899,
2007-12-06, 02:59:00,VALID,915.545,VALID,0,VALID,100,VALID,-0.118866,VALID,19.6292,VALID,145,VALID,1.22123,
2007-12-06, 03:00:00,VALID,915.557,VALID,0,VALID,100,VALID,-0.101885,VALID,19.6451,VALID,144,VALID,0.872332,
2007-12-06, 03:01:00,VALID,915.552,VALID,0,VALID,99.9313,VALID,-0.118866,VALID,19.6646,VALID,144,VALID,1.11119,
2007-12-06, 03:02:00,VALID,915.566,VALID,0,VALID,99.7078,VALID,-0.118866,VALID,19.7068,VALID,139,VALID,1.34431,
2007-12-06, 03:03:00,VALID,915.557,VALID,0,VALID,99.4484,VALID,-0.118866,VALID,19.7198,VALID,130,VALID,0.999023,
2007-12-06, 03:04:00,VALID,915.57,VALID,0,VALID,99.2882,VALID,-0.118866,VALID,19.7392,VALID,128,VALID,0.694285,
2007-12-06, 03:05:00,VALID,915.573,VALID,0,VALID,99.1953,VALID,-0.0679233,VALID,19.739,VALID,133,VALID,0.897347,
2007-12-06, 03:06:00,VALID,915.581,VALID,0,VALID,99.1114,VALID,-0.118866,VALID,19.7517,VALID,127,VALID,0.94122,
2007-12-06, 03:07:00,VALID,915.576,VALID,0,VALID,99.0237,VALID,-0.101885,VALID,19.7417,VALID,128,VALID,1.28016,
2007-12-06, 03:08:00,VALID,915.574,VALID,0,VALID,98.9804,VALID,-0.101885,VALID,19.742,VALID,129,VALID,1.08239,
2007-12-06, 03:09:00,VALID,915.57,VALID,0,VALID,98.9753,VALID,-0.101885,VALID,19.7387,VALID,131,VALID,0.940104,
2007-12-06, 03:10:00,VALID,915.566,VALID,0,VALID,98.9054,VALID,-0.0849042,VALID,19.7487,VALID,131,VALID,1.12593,
2007-12-06, 03:11:00,VALID,915.552,VALID,0,VALID,98.8227,VALID,-0.101885,VALID,19.7522,VALID,127,VALID,1.40975,
2007-12-06, 03:12:00,VALID,915.54,VALID,0,VALID,98.7375,VALID,0.0169808,VALID,19.7634,VALID,126,VALID,1.32173,
2007-12-06, 03:13:00,VALID,915.53,VALID,0,VALID,98.6371,VALID,0.0509425,VALID,19.7729,VALID,114,VALID,1.28835,
2007-12-06, 03:14:00,VALID,915.543,VALID,0,VALID,98.468,VALID,0.0169808,VALID,19.7789,VALID,127,VALID,1.88772,
2007-12-06, 03:15:00,VALID,915.539,VALID,0,VALID,98.0967,VALID,0.0169808,VALID,19.8408,VALID,131,VALID,1.81341,
2007-12-06, 03:16:00,VALID,915.546,VALID,0,VALID,97.7088,VALID,0.0339617,VALID,19.9089,VALID,120,VALID,0.716264,
2007-12-06, 03:17:00,VALID,915.547,VALID,0,VALID,97.4265,VALID,0.0169808,VALID,19.9441,VALID,127,VALID,1.08966,
2007-12-06, 03:18:00,VALID,915.562,VALID,0,VALID,97.2409,VALID,0.0339617,VALID,19.9671,VALID,105,VALID,1.15737,
2007-12-06, 03:19:00,VALID,915.57,VALID,0,VALID,97.1379,VALID,0.0509425,VALID,19.9703,VALID,113,VALID,1.0436,
2007-12-06, 03:20:00,VALID,915.583,VALID,0,VALID,97.0667,VALID,0.0339617,VALID,19.9703,VALID,115,VALID,0.675195,
2007-12-06, 03:21:00,VALID,915.58,VALID,0,VALID,97.0387,VALID,0.0339617,VALID,19.9808,VALID,102,VALID,0.945126,
2007-12-06, 03:22:00,VALID,915.568,VALID,0,VALID,97.0298,VALID,0.0509425,VALID,19.9801,VALID,84,VALID,0.369496,
2007-12-06, 03:23:00,VALID,915.576,VALID,0,VALID,97.0171,VALID,-0.0169808,VALID,19.9843,VALID,85,VALID,0.179688,
2007-12-06, 03:24:00,VALID,915.575,VALID,0,VALID,97.0641,VALID,0.0169808,VALID,19.9676,VALID,91,VALID,0.265253,
2007-12-06, 03:25:00,VALID,915.568,VALID,0,VALID,97.1163,VALID,0.0339617,VALID,19.9446,VALID,91,VALID,0,
2007-12-06, 03:26:00,VALID,915.574,VALID,0,VALID,97.2294,VALID,0,VALID,19.9347,VALID,91,VALID,0,
2007-12-06, 03:27:00,VALID,915.562,VALID,0,VALID,97.3057,VALID,-0.0679233,VALID,19.9529,VALID,91,VALID,0,
2007-12-06, 03:28:00,VALID,915.577,VALID,0,VALID,97.3566,VALID,-0.0679233,VALID,19.9429,VALID,91,VALID,0,
2007-12-06, 03:29:00,VALID,915.585,VALID,0,VALID,97.438,VALID,-0.0339617,VALID,19.9524,VALID,91,VALID,0,
2007-12-06, 03:30:00,VALID,915.568,VALID,0,VALID,97.4329,VALID,-0.0509425,VALID,19.9524,VALID,91,VALID,0,
2007-12-06, 03:31:00,VALID,915.575,VALID,0,VALID,97.4863,VALID,-0.0849042,VALID,19.9594,VALID,91,VALID,0,
2007-12-06, 03:32:00,VALID,915.563,VALID,0,VALID,97.5702,VALID,-0.0849042,VALID,19.9529,VALID,91,VALID,0,
2007-12-06, 03:33:00,VALID,915.564,VALID,0,VALID,97.6554,VALID,-0.0679233,VALID,19.9494,VALID,80,VALID,0.184593,
2007-12-06, 03:34:00,VALID,915.552,VALID,0,VALID,97.7521,VALID,-0.0849042,VALID,19.9137,VALID,68,VALID,0.366602,
2007-12-06, 03:35:00,VALID,915.558,VALID,0,VALID,97.8614,VALID,-0.0849042,VALID,19.898,VALID,68,VALID,0.110518,
2007-12-06, 03:36:00,VALID,915.567,VALID,0,VALID,97.9835,VALID,-0.0849042,VALID,19.8783,VALID,68,VALID,0,
2007-12-06, 03:37:00,VALID,915.558,VALID,0,VALID,98.103,VALID,-0.0679233,VALID,19.8648,VALID,68,VALID,0,
2007-12-06, 03:38:00,VALID,915.56,VALID,0,VALID,98.2149,VALID,-0.0679233,VALID,19.8486,VALID,68,VALID,0,